Portada
METAR-TAF:

METAR-TAF

Aeroports :

Chamberlain Municipal Airport

Chamberlain, Dakota del Sud, Estats Units d'Amèrica

latitud: 43-46-00N, longitud: 099-19-06W, altitud: 516 m

Observació

L'informe es va fer fa 32 minuts, a les 22:35 UTC
Vent 6 kt del Nord-Oest
Temperatura 11°C
Humitat 43%
Pressió 1012 hPa
Visibilitat: 16.1 km
Cel clar

METAR: K9V9 222235Z AUTO 31006KT 10SM CLR 11/M01 A2989 RMK AO2 T01071006

Hora: 17:07 (23:07 UTC)


TAF: manca

Observacions i pronòstics meteorològics de més de 4000 aeroports (METAR i TAF).

Les estacions disponibles són els punts grocs i vermells al mapa.

Posi el ratolí al punt desitjat per veure el nom de l'estació.

Feu clic per veure les observacions i els pronòstics meteorològics.

Per canviar el mapa: feu clic els botons verds amb una creu de color negre per apropar; al botó verd amb un guió per allunyar la imatge; o en les fletxes verdes per a mapes adjacents.


METAR-TAF: